Location: Gungolding
(48.9246°N, 11.3502°E)
Time: 01:21:37
(UTC+01:00)

ISS - Visible Passes

Search period start: 25 February 2020 00:00
Search period end: 06 March 2020 00:00
Orbit: 415 x 423 km, 51.6° (Epoch: 25 February)

Date Brightness Start Highest point End Pass type
(mag) Time Alt. Az. Time Alt. Az. Time Alt. Az.
25 Feb -0.6 04:24:25 10° SE 04:24:25 10° SE 04:24:42 10° SE visible
25 Feb -3.0 05:57:24 12° SW 06:00:24 50° SSE 06:03:42 10° ENE visible
26 Feb -2.4 05:11:55 28° S 05:12:52 34° SSE 05:15:59 10° E visible
27 Feb -1.4 04:26:20 20° ESE 04:26:20 20° ESE 04:28:06 10° E visible
27 Feb -3.8 05:59:18 16° WSW 06:01:52 86° NNW 06:05:16 10° ENE visible
28 Feb -3.7 05:13:37 54° SW 05:14:13 71° SSE 05:17:35 10° ENE visible
29 Feb -1.9 04:27:51 31° E 04:27:51 31° E 04:29:53 10° ENE visible
29 Feb -3.5 06:00:48 15° W 06:03:24 58° N 06:06:46 10° ENE visible
01 Mar -0.2 03:42:03 10° E 03:42:03 10° E 03:42:06 10° E visible
01 Mar -3.7 05:15:00 50° WNW 05:15:41 69° NNW 05:19:03 10° ENE visible
02 Mar -2.3 04:29:08 38° ENE 04:29:08 38° ENE 04:31:21 10° ENE visible
02 Mar -3.2 06:02:05 13° WNW 06:04:58 51° N 06:08:17 10° ENE visible
03 Mar -0.4 03:43:15 13° ENE 03:43:15 13° ENE 03:43:38 10° ENE visible
03 Mar -3.3 05:16:11 36° WNW 05:17:11 52° N 05:20:31 10° ENE visible
04 Mar -2.6 04:30:17 42° NE 04:30:17 42° NE 04:32:46 10° ENE visible
04 Mar -3.4 06:03:13 11° WNW 06:06:29 59° N 06:09:50 10° E visible
05 Mar -0.6 03:44:22 15° ENE 03:44:22 15° ENE 03:45:01 10° ENE visible
05 Mar -3.2 05:17:18 29° WNW 05:18:42 53° N 05:22:01 10° E visible
